Hourly Data Report for October 06, 2017

All times are specified in Local Standard Time (LST). Add 1 hour to adjust for Daylight Saving Time where and when it is observed.

HAY RIVER A
NORTHWEST TERRITORIES

60°50'23.000" N
115°46'58.000" W
164.90 m
2202401
71935
YHY

Download Data

Hourly Data (October 2017)
Hourly Data Report for October 6, 2017
Temp Definition
°C
Dew Point Temp Definition
°C
Rel Hum Definition
%
Wind Dir Definition
10's deg

Wind Spd Definition
km/h
Visibility Definition
km
Stn Press Definition
kPa
Hmdx Definition


Wind Chill Definition


Weather Definition


TIME
00:00 Legend Double Dagger 9.7 1.7 57 24 10 24.1 97.41     LegendNANA
01:00 Legend Double Dagger 7.9 1.2 62 23 12 24.1 97.38     LegendNANA
02:00 Legend Double Dagger 6.9 0.7 65 24 12 24.1 97.34     Mainly Clear
03:00 Legend Double Dagger 8.6 0.9 58 27 14 24.1 97.28     LegendNANA
04:00 Legend Double Dagger 9.2 0.8 56 27 13 24.1 97.20     LegendNANA
05:00 Legend Double Dagger 6.3 0.7 67 25 12 24.1 97.18     Mostly Cloudy
06:00 Legend Double Dagger 6.1 0.7 68 17 7 24.1 97.09     LegendNANA
07:00 Legend Double Dagger 4.6 1.4 79 17 3 24.1 97.01     LegendNANA
08:00 Legend Double Dagger 6.1 0.6 68 22 5 24.1 96.94     Mostly Cloudy
09:00 Legend Double Dagger 6.3 1.4 70 23 7 24.1 96.88     LegendNANA
10:00 Legend Double Dagger 9.5 1.4 57 27 12 24.1 96.83     LegendNANA
11:00 Legend Double Dagger 9.8 2.6 61 28 10 24.1 96.81     Mostly Cloudy
12:00 Legend Double Dagger 9.7 3.8 67 32 10 24.1 96.79     LegendNANA
13:00 Legend Double Dagger 9.1 4.0 70 33 10 24.1 96.77     LegendNANA
14:00 Legend Double Dagger 8.6 6.3 85 5 10 24.1 96.78     Cloudy
15:00 Legend Double Dagger 8.0 5.7 86 3 9 24.1 96.82     Rain
16:00 Legend Double Dagger 7.4 5.8 90 3 8 24.1 96.82     Rain
17:00 Legend Double Dagger 6.6 5.8 94 36 4 24.1 96.85     Rain
18:00 Legend Double Dagger 6.4 5.3 93 3 5 24.1 96.89     Rain
19:00 Legend Double Dagger 6.2 5.0 92 35 8 24.1 96.94     LegendNANA
20:00 Legend Double Dagger 5.7 3.9 88 34 11 24.1 96.95     Cloudy
21:00 Legend Double Dagger 5.3 3.3 87 34 16 24.1 96.97     LegendNANA
22:00 Legend Double Dagger 5.1 2.8 85 33 11 24.1 97.01     LegendNANA
23:00 Legend Double Dagger 4.9 3.0 88 33 12 24.1 97.03     Mostly Cloudy

Notes on Data Quality.

Legend

  • E = Estimated
  • M = Missing
  • NA = Not Available
  • ‡ = Partner data that is not subject to review by the National Climate Archives
Date modified: